Dewpoint
24 22 20 21 24 24 23 23 23 25 27 29 29 30 31 32 31 26 25 25 25 25 26 27 27 31 56 67 66 67 67 68 67 67 64 65 63 65 66 67 67 66 68 70
22 21 22 23 23 23 23 24 24 26 28 30 29 29 30 30 30 29 28 28 26 26 26 27 28 31 62 67 67 67 67 67 67 67 67 67 65 67 67 68 68 68 70 70
20 20 24 23 23 25 25 25 25 25 27 29 29 27 29 29 29 29 28 27 26 27 27 28 27 30 57 67 67 67 68 67 67 67 68 68 69 69 68 68 67 70 70 69
21 23 24 25 27 27 25 27 27 27 27 25 28 24 26 27 27 28 27 28 28 28 28 28 27 28 39 66 67 67 67 66 67 67 68 67 66 66 68 68 69 70 69 68
25 27 27 27 27 29 28 33 32 30 28 26 26 26 25 28 26 27 28 28 28 29 28 28 27 27 28 54 66 67 67 66 67 68 69 68 68 68 68 68 68 66 66 65
29 32 29 29 31 32 34 32 29 29 27 26 26 26 24 24 24 25 26 26 28 29 29 29 30 30 28 34 66 67 67 66 67 68 69 68 68 68 67 66 66 66 65 65
32 32 33 31 30 31 29 28 19 19 25 23 25 26 26 26 26 25 24 24 27 32 29 29 28 26 28 29 52 66 66 65 66 68 68 68 68 68 66 66 65 64 64 63
29 24 30 32 29 29 29 28 21 17 20 20 28 24 23 27 29 29 29 28 32 35 33 33 33 30 25 28 40 66 65 64 66 68 67 68 67 67 67 66 65 64 63 63
28 28 32 30 30 30 30 31 31 23 26 26 24 25 28 29 31 32 32 37 37 38 39 39 38 32 28 29 41 64 66 65 66 65 67 67 67 67 66 66 66 65 64 62
32 28 30 32 33 31 30 33 23 33 24 20 22 25 26 27 30 34 34 34 35 37 39 40 40 37 33 33 43 62 66 65 65 65 67 67 66 65 65 66 65 64 62 59
33 34 29 32 30 27 28 29 33 34 31 24 21 21 28 30 31 34 35 36 36 37 38 40 41 41 41 38 46 61 66 66 64 64 66 66 66 66 65 64 63 62 59 57
35 35 30 28 29 31 30 29 33 29 27 31 27 25 29 34 35 37 37 37 37 38 39 42 43 43 44 45 43 58 65 67 63 64 66 66 66 65 64 63 60 59 56 56
37 34 26 23 26 33 31 32 33 34 34 29 26 24 36 35 34 35 34 35 37 37 37 41 43 44 45 48 49 55 64 67 64 65 65 66 65 62 60 59 58 57 56 55
38 34 31 26 26 32 33 35 35 34 29 27 29 28 28 30 32 32 38 42 43 42 39 42 44 45 47 50 55 54 65 67 66 65 66 64 61 59 58 57 56 56 55 53
39 33 34 33 34 34 33 33 33 30 32 30 32 33 35 37 39 40 40 40 41 42 45 45 46 46 47 49 52 61 64 66 66 66 64 61 59 57 56 54 53 53 51 50
39 33 35 31 32 33 32 31 31 31 35 33 32 33 39 39 39 39 39 39 40 40 43 47 47 49 50 52 54 63 65 65 65 62 59 57 56 55 53 51 50 50 49 48
34 32 28 24 28 28 26 33 32 31 30 32 31 35 36 36 37 37 39 39 39 40 42 43 48 49 50 54 60 61 63 62 59 57 55 54 52 50 49 49 48 48 47 45
34 32 32 27 28 11 30 36 34 32 32 34 35 35 37 38 39 39 39 39 40 41 42 45 50 51 53 57 59 61 59 56 55 53 52 50 49 47 46 45 45 44 44 43
39 34 30 24 22 23 32 35 34 31 29 35 35 35 35 38 38 38 41 43 42 43 46 50 51 52 57 59 59 57 55 54 52 51 49 47 46 46 46 44 44 42 41 38
39 37 32 28 23 20 31 33 34 34 27 36 36 35 35 36 32 36 41 44 45 46 49 51 52 57 57 58 57 55 54 52 50 49 48 48 47 46 43 42 40 40 39 34
28 30 28 24 25 26 33 34 34 23 26 36 37 36 36 34 37 41 43 45 48 48 51 54 56 55 56 55 54 53 52 49 48 47 46 45 45 42 40 39 39 37 36 33
30 28 23 26 23 18 34 33 28 30 37 37 37 37 37 39 41 43 45 47 49 50 53 54 53 53 54 53 51 49 47 47 45 44 43 41 40 38 37 35 32 32 30 28
30 33 30 29 28 32 35 33 35 38 37 37 37 38 39 41 42 44 45 50 52 54 53 53 52 52 51 50 48 46 46 46 44 42 40 39 38 37 34 30 26 25 26 27
37 37 32 32 32 33 34 35 38 37 37 39 39 39 41 43 45 48 52 53 53 53 53 53 52 51 50 50 48 47 44 43 41 40 39 38 36 32 25 24 25 25 27 27
36 34 33 33 32 36 35 36 37 37 38 39 40 41 44 46 48 46 45 52 52 52 53 53 51 50 48 48 46 44 44 43 41 39 37 35 32 25 25 26 26 25 28 28
35 33 31 30 35 35 35 37 38 38 39 40 41 42 45 47 46 45 44 46 49 50 50 47 46 45 44 44 45 44 43 41 37 34 32 27 23 24 25 26 29 34 32 32
Lifted_Index
5 4 3 3 4 4 4 5 5 4 4 4 5 5 5 4 4 3 3 4 5 6 6 7 7 6 3 -2 -4 -3 -3 -3 -4 -4 -4 -3 -2 -1 -1 -1 -1 -1 -2 -2
4 3 3 3 3 4 4 5 5 4 4 4 5 5 5 4 4 3 3 4 4 5 6 6 6 5 2 -3 -5 -4 -4 -3 -3 -4 -4 -3 -2 -2 -2 -2 -2 -2 -2 -3
3 2 2 2 3 4 4 4 4 5 4 4 4 4 4 4 4 4 3 3 3 4 5 6 6 5 1 -4 -6 -5 -5 -4 -3 -4 -4 -3 -3 -3 -3 -3 -3 -3 -3 -3
2 2 2 3 3 4 4 4 4 4 4 4 3 3 3 4 4 4 4 4 3 4 4 5 6 5 2 -3 -6 -6 -6 -5 -4 -4 -4 -4 -3 -4 -4 -4 -4 -4 -4 -4
3 3 3 3 4 4 4 4 4 4 4 3 3 3 3 3 3 4 4 4 4 4 4 4 5 5 4 -0 -5 -7 -7 -6 -5 -5 -5 -4 -4 -4 -4 -4 -4 -4 -4 -4
3 3 3 3 3 3 4 4 3 3 3 3 3 3 3 3 3 4 4 4 4 3 3 3 4 4 5 2 -4 -7 -8 -7 -6 -5 -5 -5 -5 -5 -5 -5 -5 -4 -4 -3
3 3 3 3 4 4 4 4 3 2 1 2 2 3 3 3 2 3 3 3 3 3 3 3 3 3 4 3 -1 -6 -8 -7 -6 -5 -5 -5 -5 -5 -5 -5 -4 -3 -3 -2
3 3 3 4 4 5 4 3 2 1 1 2 3 3 3 3 2 2 3 3 3 2 2 2 2 2 3 4 1 -5 -8 -8 -6 -5 -5 -5 -5 -5 -5 -4 -3 -2 -2 -1
4 4 4 4 5 5 4 3 2 2 1 1 2 3 3 3 2 2 2 2 2 2 2 2 1 1 2 3 1 -4 -8 -8 -7 -6 -5 -5 -5 -5 -5 -4 -3 -1 -1 -1
4 4 4 4 4 4 4 3 2 2 1 1 1 2 3 2 2 1 2 2 2 2 2 2 1 1 2 3 1 -4 -8 -8 -7 -6 -5 -4 -5 -5 -4 -3 -2 -1 -0 -0
5 4 4 3 3 3 3 3 2 1 1 1 1 2 2 2 1 1 1 1 2 2 2 2 2 1 1 2 1 -3 -8 -8 -7 -6 -5 -5 -5 -5 -4 -3 -2 -1 -1 -0
5 4 3 3 3 3 2 2 2 1 1 1 1 2 2 2 1 1 1 1 2 2 2 2 2 2 1 2 1 -3 -7 -9 -8 -7 -6 -5 -5 -5 -4 -3 -2 -1 -1 -1
4 4 3 2 2 2 2 2 2 1 1 1 2 2 2 2 2 2 2 2 2 2 2 2 2 2 2 1 0 -3 -7 -9 -8 -7 -6 -5 -5 -4 -4 -3 -2 -1 -1 -1
3 3 2 2 2 2 2 2 2 1 1 1 2 2 2 2 2 2 2 2 2 2 2 2 2 2 2 1 -1 -4 -8 -9 -9 -7 -6 -5 -5 -4 -4 -3 -2 -2 -1 -0
3 2 2 2 2 2 2 2 2 2 1 1 2 2 2 2 2 2 2 3 2 2 1 1 2 2 2 1 -2 -6 -9 -9 -9 -7 -6 -5 -5 -4 -4 -3 -2 -1 0 1
2 2 3 3 3 3 3 2 2 2 2 2 2 2 2 2 2 2 2 2 2 2 1 1 1 1 1 -0 -4 -7 -9 -8 -8 -7 -6 -5 -4 -4 -4 -3 -2 -0 1 2
3 3 3 2 2 3 3 3 3 2 2 2 2 2 3 2 2 2 2 2 2 2 1 1 1 1 -0 -2 -5 -8 -8 -7 -6 -6 -5 -4 -4 -4 -3 -2 -1 1 2 3
3 3 3 2 2 2 3 3 3 3 3 2 3 3 3 3 3 2 3 3 2 1 1 1 0 -1 -2 -4 -6 -7 -7 -7 -6 -6 -5 -4 -3 -3 -3 -1 0 2 4 5
3 3 3 2 2 2 3 4 4 4 3 3 3 4 4 3 3 2 2 2 2 1 1 0 -1 -2 -4 -5 -5 -5 -6 -6 -6 -5 -4 -4 -3 -3 -1 0 2 3 5 7
3 3 3 3 2 3 4 5 5 4 3 3 4 4 4 4 3 2 1 1 1 1 0 -0 -1 -3 -5 -4 -3 -4 -5 -5 -5 -4 -3 -3 -2 -1 0 2 3 5 7 8
3 3 3 3 3 3 4 5 5 4 4 4 5 5 4 4 3 2 1 1 0 0 -0 -1 -2 -3 -4 -3 -2 -3 -4 -4 -3 -3 -2 -1 -0 1 2 2 4 6 8 9
3 4 4 4 3 4 5 5 5 5 5 5 5 5 4 4 3 2 2 1 0 -0 -1 -2 -2 -2 -2 -2 -2 -2 -3 -3 -2 -2 -1 1 2 2 3 4 6 8 9 10
4 4 4 4 4 5 6 6 6 6 6 6 6 5 4 3 3 2 1 1 0 -1 -2 -2 -2 -2 -2 -2 -2 -2 -1 -1 -0 0 1 3 3 4 5 6 8 9 10 11
4 4 4 5 5 6 6 6 7 7 6 6 6 5 4 3 3 2 1 1 -0 -1 -2 -2 -2 -2 -1 -1 -0 0 1 2 3 3 3 4 5 6 8 8 9 10 11 12
4 4 5 5 5 6 6 6 7 6 6 6 5 5 4 3 2 2 2 1 1 -0 -1 -1 -1 -1 0 1 2 3 4 4 4 5 5 6 7 8 9 10 11 12 14 15
4 4 5 5 5 5 6 6 7 6 5 5 5 5 4 3 2 2 2 2 2 1 0 -1 -1 0 2 3 4 4 5 5 5 5 5 7 8 9 10 11 13 15 17 17